Location: Unspecified
(0.0000°N, 0.0000°E)
Time: 14:03:51
(UTC+00:00)

STARLINK-32002 - Visible Passes

Search period start: 19 September 2024 00:00
Search period end: 29 September 2024 00:00
Orbit: 446 x 448 km, 53.2° (Epoch: 19 September)

Date Brightness Start Highest point End Pass type
(mag) Time Alt. Az. Time Alt. Az. Time Alt. Az.
20 Sep 3.9 19:08:25 10° SSW 19:11:05 39° SSE 19:11:05 39° SSE visible
21 Sep 4.3 18:30:28 10° S 18:33:30 27° SE 18:35:43 15° ENE visible
22 Sep 5.9 19:30:00 10° W 19:32:21 17° NW 19:34:12 12° NNW visible
23 Sep 5.3 18:51:10 10° WSW 18:54:13 27° NW 18:57:17 10° N visible
24 Sep 4.3 18:12:46 10° SW 18:16:12 47° NW 18:19:35 10° NNE visible
26 Sep 3.5 05:15:43 10° NNW 05:19:14 70° ENE 05:22:45 10° SE visible
27 Sep 4.5 04:38:19 11° NNW 04:41:25 39° NE 04:44:44 10° SE visible
28 Sep 5.3 04:03:32 23° NE 04:03:42 23° NE 04:06:35 10° ESE visible
